FW5778 Weather Reports


Display with metric or nautical units.
time (UTC)temp
F
wind
direction
speed
MPH
gust
MPH
rain 1hr
in
rain 24hr
in
rain mn
in
humidity
%
barometer
mb
20260509061513 62 328 0.0 0.0 0.00 0.00 0.00 34 1014.8
20260509061004 62 328 0.0 0.0 0.00 0.00 0.00 34 1014.9
20260509060503 63 328 0.0 5.0 0.00 0.00 0.00 33 1015.0
20260509060002 63 328 1.0 5.0 0.00 0.00 0.00 33 1015.0
20260509055502 63 326 1.0 4.0 0.00 0.00 0.00 33 1014.9
20260509055003 63 329 1.0 4.0 0.00 0.00 0.00 32 1014.9
20260509054502 63 322 2.0 5.0 0.00 0.00 0.00 32 1015.1
20260509054004 63 296 0.0 3.0 0.00 0.00 0.00 30 1015.1
20260509053503 63 347 1.0 7.0 0.00 0.00 0.00 30 1015.1
20260509053003 63 304 3.0 8.0 0.00 0.00 0.00 29 1015.0
20260509052502 62 309 3.0 8.0 0.00 0.00 0.00 30 1015.0
20260509052001 62 344 4.0 7.0 0.00 0.00 0.00 31 1014.9
20260509051501 62 30 1.0 5.0 0.00 0.00 0.00 31 1014.6
20260509051102 62 269 1.0 5.0 0.00 0.00 0.00 30 1014.6
20260509050600 63 292 2.0 4.0 0.00 0.00 0.00 30 1014.5
20260509050100 63 270 2.0 4.0 0.00 0.00 0.00 30 1014.5
20260509045559 63 252 1.0 3.0 0.00 0.00 0.00 30 1014.4
20260509045059 63 255 1.0 3.0 0.00 0.00 0.00 30 1014.4
20260509044616 63 281 2.0 3.0 0.00 0.00 0.00 30 1014.4
20260509044059 63 269 1.0 3.0 0.00 0.00 0.00 30 1014.4
20260509043602 64 255 2.0 3.0 0.00 0.00 0.00 30 1014.4
20260509043059 64 240 2.0 3.0 0.00 0.00 0.00 30 1014.3
20260509042559 64 257 1.0 3.0 0.00 0.00 0.00 30 1014.3
20260509042059 64 257 1.0 3.0 0.00 0.00 0.00 30 1014.2
20260509041600 64 257 1.0 2.0 0.00 0.00 0.00 30 1014.2
20260509041059 64 273 0.0 3.0 0.00 0.00 0.00 31 1014.2
20260509040558 64 265 0.0 3.0 0.00 0.00 0.00 31 1014.3
20260509040058 64 257 0.0 3.0 0.00 0.00 0.00 31 1014.2
20260509035600 64 265 1.0 3.0 0.00 0.00 0.00 31 1014.2
20260509035058 64 245 1.0 4.0 0.00 0.00 0.00 31 1014.2
20260509034558 64 237 2.0 4.0 0.00 0.00 0.00 31 1014.2
20260509034057 65 226 2.0 3.0 0.00 0.00 0.00 30 1014.1
20260509033557 65 252 2.0 3.0 0.00 0.00 0.00 29 1014.0
20260509033057 65 238 2.0 3.0 0.00 0.00 0.00 30 1014.0
20260509032559 65 255 1.0 3.0 0.00 0.00 0.00 29 1014.0
20260509032056 66 248 1.0 3.0 0.00 0.00 0.00 28 1013.9
20260509031608 66 262 1.0 3.0 0.00 0.00 0.00 28 1013.9
20260509031059 66 241 1.0 3.0 0.00 0.00 0.00 27 1013.8
20260509030556 66 249 1.0 4.0 0.00 0.00 0.00 27 1013.8
20260509030057 67 276 2.0 4.0 0.00 0.00 0.00 27 1013.9
20260509025554 67 269 2.0 3.0 0.00 0.00 0.00 27 1013.8
20260509025054 67 241 0.0 0.0 0.00 0.00 0.00 27 1013.7
20260509024557 68 241 0.0 0.0 0.00 0.00 0.00 26 1013.8
20260509024054 68 239 0.0 0.0 0.00 0.00 0.00 26 1013.7
20260509023554 69 124 0.0 0.0 0.00 0.00 0.00 25 1013.7
20260509023106 70 103 0.0 0.0 0.00 0.00 0.00 25 1013.7
20260509022556 71 103 0.0 0.0 0.00 0.00 0.00 23 1013.6
20260509022056 71 103 0.0 0.0 0.00 0.00 0.00 21 1013.6
20260509021554 71 103 0.0 0.0 0.00 0.00 0.00 21 1013.6
20260509021056 72 103 0.0 2.0 0.00 0.00 0.00 21 1013.5
20260509020555 72 103 0.0 3.0 0.00 0.00 0.00 21 1013.5
20260509020054 73 91 1.0 3.0 0.00 0.00 0.00 20 1013.5
20260509015554 73 88 0.0 3.0 0.00 0.00 0.00 20 1013.6
20260509015054 74 79 0.0 4.0 0.00 0.00 0.00 20 1013.5
20260509014552 74 101 1.0 4.0 0.00 0.00 0.00 19 1013.5
20260509014052 75 95 1.0 9.0 0.00 0.00 0.00 19 1013.5
20260509013552 76 44 2.0 9.0 0.00 0.00 0.00 18 1013.6
20260509013052 76 14 2.0 9.0 0.00 0.00 0.00 16 1013.6
20260509012551 76 281 4.0 9.0 0.00 0.00 0.00 16 1013.6
20260509012049 76 296 3.0 8.0 0.00 0.00 0.00 17 1013.7
20260509011549 76 271 0.0 7.0 0.00 0.00 0.00 17 1013.7
20260509011047 76 59 3.0 7.0 0.00 0.00 0.00 18 1013.8
20260509010547 76 19 3.0 9.0 0.00 0.00 0.00 18 1013.9
20260509010048 76 238 1.0 9.0 0.00 0.00 0.00 19 1014.0
20260509005545 76 319 3.0 7.0 0.00 0.00 0.00 18 1014.0
20260509005048 76 46 2.0 7.0 0.00 0.00 0.00 18 1014.0
20260509004544 76 12 2.0 10.0 0.00 0.00 0.00 18 1014.0
20260509004044 76 44 6.0 10.0 0.00 0.00 0.00 18 1014.1
20260509003543 75 37 7.0 10.0 0.00 0.00 0.00 19 1014.1
20260509003047 75 337 3.0 8.0 0.00 0.00 0.00 19 1014.2
20260509002543 75 360 3.0 7.0 0.00 0.00 0.00 19 1014.2
20260509002042 75 37 4.0 11.0 0.00 0.00 0.00 19 1014.2
20260509001544 75 17 5.0 11.0 0.00 0.00 0.00 19 1014.3
20260509001042 75 25 6.0 11.0 0.00 0.00 0.00 19 1014.3
20260509000544 75 3 5.0 12.0 0.00 0.00 0.00 19 1014.3
20260509000043 75 2 4.0 10.0 0.00 0.00 0.00 19 1014.4
20260508235540 75 46 6.0 12.0 0.00 0.00 0.00 19 1014.4
20260508235039 75 9 5.0 12.0 0.00 0.00 0.00 19 1014.4
20260508234541 75 30 5.0 11.0 0.00 0.00 0.00 19 1014.4
20260508234039 75 15 3.0 14.0 0.00 0.00 0.00 19 1014.4
20260508233539 75 332 8.0 14.0 0.00 0.00 0.00 19 1014.4
20260508233041 75 10 6.0 11.0 0.00 0.00 0.00 19 1014.5
20260508232539 75 309 8.0 11.0 0.00 0.00 0.00 18 1014.5
20260508232041 75 333 4.0 10.0 0.00 0.00 0.00 19 1014.5
20260508231539 75 26 6.0 13.0 0.00 0.00 0.00 19 1014.5
20260508231036 75 59 9.0 13.0 0.00 0.00 0.00 19 1014.6
20260508230536 75 355 6.0 14.0 0.00 0.00 0.00 19 1014.5
20260508230043 75 28 7.0 15.0 0.00 0.00 0.00 19 1014.6
20260508225535 75 347 6.0 15.0 0.00 0.00 0.00 20 1014.7
20260508225035 75 56 8.0 15.0 0.00 0.00 0.00 19 1014.7
20260508224537 75 10 9.0 15.0 0.00 0.00 0.00 19 1014.9
20260508224037 75 56 6.0 16.0 0.00 0.00 0.00 19 1014.9
20260508223533 75 313 9.0 16.0 0.00 0.00 0.00 19 1015.0
20260508223035 75 285 8.0 16.0 0.00 0.00 0.00 20 1014.9
20260508222532 75 283 9.0 16.0 0.00 0.00 0.00 20 1015.0
20260508222031 75 335 8.0 16.0 0.00 0.00 0.00 20 1015.1
20260508221531 75 357 7.0 14.0 0.00 0.00 0.00 19 1015.2
20260508221029 74 1 9.0 18.0 0.00 0.00 0.00 20 1015.3
20260508220528 74 40 9.0 18.0 0.00 0.00 0.00 20 1015.3
20260508215528 74 328 7.0 18.0 0.00 0.00 0.00 21 1015.4
20260508215027 74 12 8.0 16.0 0.00 0.00 0.00 20 1015.5
20260508214525 74 16 7.0 16.0 0.00 0.00 0.00 20 1015.6
20260508214026 74 320 9.0 14.0 0.00 0.00 0.00 20 1015.7
20260508213524 74 27 5.0 17.0 0.00 0.00 0.00 21 1015.6
20260508213024 74 23 10.0 17.0 0.00 0.00 0.00 20 1015.6
20260508212523 73 342 9.0 17.0 0.00 0.00 0.00 21 1015.8
20260508212022 73 304 10.0 17.0 0.00 0.00 0.00 21 1015.8
20260508211524 73 13 9.0 17.0 0.00 0.00 0.00 21 1016.0
20260508211021 73 34 9.0 17.0 0.00 0.00 0.00 20 1016.0
20260508210520 73 23 8.0 19.0 0.00 0.00 0.00 21 1016.1
20260508210020 73 15 9.0 20.0 0.00 0.00 0.00 21 1016.1
20260508205519 72 30 10.0 20.0 0.00 0.00 0.00 21 1016.1
20260508205021 72 23 11.0 18.0 0.00 0.00 0.00 21 1016.2
20260508204521 72 25 11.0 19.0 0.00 0.00 0.00 21 1016.3
20260508204022 73 12 11.0 21.0 0.00 0.00 0.00 21 1016.3
20260508203518 73 32 9.0 25.0 0.00 0.00 0.00 21 1016.3
20260508203018 73 1 9.0 23.0 0.00 0.00 0.00 21 1016.3
20260508202519 72 311 9.0 23.0 0.00 0.00 0.00 22 1016.3
20260508202018 72 8 10.0 19.0 0.00 0.00 0.00 22 1016.4
20260508201521 72 340 8.0 24.0 0.00 0.00 0.00 22 1016.4
20260508201015 72 27 12.0 24.0 0.00 0.00 0.00 21 1016.4
20260508200516 72 345 11.0 21.0 0.00 0.00 0.00 21 1016.5
20260508200016 72 326 11.0 24.0 0.00 0.00 0.00 22 1016.5
20260508195514 72 342 11.0 24.0 0.00 0.00 0.00 22 1016.5
20260508195016 72 10 13.0 23.0 0.00 0.00 0.00 21 1016.4
20260508194514 72 28 12.0 21.0 0.00 0.00 0.00 22 1016.5
20260508194014 71 347 8.0 21.0 0.00 0.00 0.00 22 1016.6
20260508193514 72 18 9.0 17.0 0.00 0.00 0.00 21 1016.6
20260508193013 72 316 7.0 20.0 0.00 0.00 0.00 23 1016.7
20260508192513 71 3 10.0 20.0 0.00 0.00 0.00 23 1016.6
20260508192013 72 24 8.0 18.0 0.00 0.00 0.00 23 1016.8
20260508191517 71 21 9.0 19.0 0.00 0.00 0.00 23 1016.7
20260508191012 71 6 12.0 20.0 0.00 0.00 0.00 22 1016.7
20260508190513 71 10 7.0 20.0 0.00 0.00 0.00 23 1016.8
20260508190013 71 39 8.0 21.0 0.00 0.00 0.00 24 1016.8
20260508185511 71 353 12.0 22.0 0.00 0.00 0.00 22 1016.9
20260508185011 72 340 11.0 22.0 0.00 0.00 0.00 22 1017.0
20260508184516 72 11 10.0 20.0 0.00 0.00 0.00 22 1017.0
20260508184010 71 9 10.0 19.0 0.00 0.00 0.00 23 1017.0
20260508183510 71 20 11.0 20.0 0.00 0.00 0.00 24 1017.2
20260508183011 71 356 10.0 20.0 0.00 0.00 0.00 23 1017.1
20260508182510 71 27 12.0 19.0 0.00 0.00 0.00 22 1017.1
20260508182012 72 297 9.0 19.0 0.00 0.00 0.00 23 1017.2
20260508181510 72 295 8.0 19.0 0.00 0.00 0.00 24 1017.1
20260508181009 72 345 11.0 19.0 0.00 0.00 0.00 23 1017.2
20260508180509 72 30 8.0 18.0 0.00 0.00 0.00 23 1017.2
20260508180010 72 328 9.0 20.0 0.00 0.00 0.00 24 1017.2
20260508175507 71 354 10.0 20.0 0.00 0.00 0.00 24 1017.3
20260508175006 72 311 8.0 18.0 0.00 0.00 0.00 24 1017.3
20260508174516 71 332 10.0 19.0 0.00 0.00 0.00 24 1017.3
20260508174004 71 334 8.0 19.0 0.00 0.00 0.00 25 1017.4
20260508173503 70 14 9.0 18.0 0.00 0.00 0.00 25 1017.5
20260508173001 70 53 8.0 15.0 0.00 0.00 0.00 28 1017.6
20260508172503 69 2 5.0 11.0 0.00 0.00 0.00 29 1017.7
20260508172100 69 24 4.0 14.0 0.00 0.00 0.00 30 1017.7
20260508171600 69 39 10.0 14.0 0.00 0.00 0.00 30 1017.7
20260508171103 69 8 5.0 12.0 0.00 0.00 0.00 31 1017.6
20260508170558 69 55 4.0 12.0 0.00 0.00 0.00 32 1017.6
20260508170100 68 348 4.0 11.0 0.00 0.00 0.00 32 1017.6
20260508165556 68 357 3.0 14.0 0.00 0.00 0.00 32 1017.6
20260508165057 68 9 8.0 14.0 0.00 0.00 0.00 32 1017.6
20260508164557 68 1 7.0 11.0 0.00 0.00 0.00 31 1017.5
20260508164057 68 3 4.0 9.0 0.00 0.00 0.00 31 1017.6
20260508163600 68 336 3.0 9.0 0.00 0.00 0.00 32 1017.6
20260508163056 68 74 3.0 10.0 0.00 0.00 0.00 30 1017.6
20260508162555 68 47 6.0 10.0 0.00 0.00 0.00 31 1017.5
20260508162057 68 27 3.0 8.0 0.00 0.00 0.00 32 1017.5
20260508161556 67 68 4.0 8.0 0.00 0.00 0.00 33 1017.5
20260508161054 67 91 4.0 7.0 0.00 0.00 0.00 32 1017.5
20260508160556 67 39 3.0 7.0 0.00 0.00 0.00 33 1017.5
20260508160055 67 47 4.0 6.0 0.00 0.00 0.00 32 1017.5
20260508155555 67 323 2.0 5.0 0.00 0.00 0.00 32 1017.5
20260508155054 67 49 2.0 6.0 0.00 0.00 0.00 34 1017.5
20260508154553 68 61 1.0 6.0 0.00 0.00 0.00 32 1017.5
20260508154051 68 91 0.0 1.0 0.00 0.00 0.00 33 1017.5
20260508153551 67 358 0.0 1.0 0.00 0.00 0.00 33 1017.5
20260508153051 67 121 0.0 1.0 0.00 0.00 0.00 35 1017.5
20260508152551 66 207 0.0 0.0 0.00 0.00 0.00 34 1017.5
20260508152048 66 115 0.0 3.0 0.00 0.00 0.00 35 1017.5
20260508151547 66 123 0.0 3.0 0.00 0.00 0.00 38 1017.4
20260508151046 66 110 0.0 3.0 0.00 0.00 0.00 37 1017.3
20260508150545 65 126 0.0 3.0 0.00 0.00 0.00 37 1017.3
20260508150044 65 129 1.0 4.0 0.00 0.00 0.00 36 1017.3
20260508145544 65 110 2.0 4.0 0.00 0.00 0.00 36 1017.3
20260508145042 64 123 0.0 3.0 0.00 0.00 0.00 38 1017.3
20260508144541 64 122 1.0 3.0 0.00 0.00 0.00 38 1017.3
20260508144041 64 151 0.0 2.0 0.00 0.00 0.00 38 1017.3
20260508143540 64 115 0.0 2.0 0.00 0.00 0.00 39 1017.3
20260508143040 63 100 0.0 0.0 0.00 0.00 0.00 41 1017.3
20260508142539 63 86 0.0 0.0 0.00 0.00 0.00 41 1017.3
20260508142039 63 102 0.0 0.0 0.00 0.00 0.00 41 1017.2
20260508141548 63 127 0.0 0.0 0.00 0.00 0.00 40 1017.3
20260508141037 63 127 0.0 0.0 0.00 0.00 0.00 41 1017.2
20260508140535 62 127 0.0 0.0 0.00 0.00 0.00 43 1017.2
20260508140037 60 122 0.0 0.0 0.00 0.00 0.00 44 1017.2
20260508135533 59 242 0.0 0.0 0.00 0.00 0.00 44 1017.2
20260508135031 58 242 0.0 0.0 0.00 0.00 0.00 45 1017.2
20260508134533 57 241 0.0 0.0 0.00 0.00 0.00 46 1017.1
20260508134030 57 241 0.0 3.0 0.00 0.00 0.00 47 1017.1
20260508133530 56 240 1.0 3.0 0.00 0.00 0.00 48 1017.0
20260508133029 55 255 1.0 3.0 0.00 0.00 0.00 49 1017.0
20260508132532 54 247 1.0 3.0 0.00 0.00 0.00 50 1017.0
20260508132029 53 245 1.0 3.0 0.00 0.00 0.00 51 1016.9
20260508131528 53 240 1.0 3.0 0.00 0.00 0.00 52 1017.0
20260508131028 52 238 1.0 3.0 0.00 0.00 0.00 52 1016.9
20260508130526 52 219 1.0 3.0 0.00 0.00 0.00 52 1016.8
20260508130029 52 229 1.0 3.0 0.00 0.00 0.00 53 1016.7
20260508125526 52 258 0.0 2.0 0.00 0.00 0.00 53 1016.7
20260508125026 51 242 0.0 1.0 0.00 0.00 0.00 54 1016.7
20260508124525 51 243 0.0 1.0 0.00 0.00 0.00 54 1016.7
20260508124023 52 243 0.0 2.0 0.00 0.00 0.00 53 1016.6
20260508123523 52 243 1.0 2.0 0.00 0.00 0.00 51 1016.5
20260508123022 52 250 1.0 2.0 0.00 0.00 0.00 51 1016.5
20260508122521 52 248 1.0 3.0 0.00 0.00 0.00 51 1016.4
20260508122022 52 272 1.0 3.0 0.00 0.00 0.00 50 1016.4
20260508121531 53 253 1.0 3.0 0.00 0.00 0.00 50 1016.3
20260508121018 53 248 1.0 2.0 0.00 0.00 0.00 49 1016.3
20260508120518 53 252 1.0 3.0 0.00 0.00 0.00 49 1016.3
20260508120018 53 245 1.0 3.0 0.00 0.00 0.00 48 1016.3
20260508115518 53 245 1.0 3.0 0.00 0.00 0.00 47 1016.2
20260508115017 53 255 1.0 3.0 0.00 0.00 0.00 47 1016.2
20260508114517 53 249 1.0 3.0 0.00 0.00 0.00 48 1016.2
20260508114021 53 246 2.0 3.0 0.00 0.00 0.00 48 1016.2
20260508113517 53 263 0.0 2.0 0.00 0.00 0.00 47 1016.2
20260508113017 53 266 0.0 3.0 0.00 0.00 0.00 47 1016.2
20260508112519 53 270 1.0 3.0 0.00 0.00 0.00 47 1016.2
20260508112014 53 236 1.0 3.0 0.00 0.00 0.00 47 1016.2
20260508111515 53 251 2.0 3.0 0.00 0.00 0.00 47 1016.1
20260508111014 53 248 1.0 3.0 0.00 0.00 0.00 47 1016.2
20260508110513 53 272 1.0 2.0 0.00 0.00 0.00 47 1016.2
20260508110017 53 276 1.0 2.0 0.00 0.00 0.00 46 1016.1
20260508105516 53 267 1.0 2.0 0.00 0.00 0.00 46 1016.1
20260508105014 53 257 1.0 2.0 0.00 0.00 0.00 45 1016.1
20260508104512 53 230 1.0 2.0 0.00 0.00 0.00 45 1016.0
20260508104011 53 202 0.0 1.0 0.00 0.00 0.00 45 1015.9
20260508103510 53 237 0.0 1.0 0.00 0.00 0.00 45 1015.8
20260508103010 54 250 0.0 1.0 0.00 0.00 0.00 44 1015.7
20260508102510 54 245 0.0 1.0 0.00 0.00 0.00 44 1015.8
20260508102010 54 245 0.0 2.0 0.00 0.00 0.00 44 1015.9
20260508101510 54 245 1.0 2.0 0.00 0.00 0.00 43 1015.8
20260508101010 54 251 1.0 2.0 0.00 0.00 0.00 43 1015.8
20260508100509 54 257 0.0 0.0 0.00 0.00 0.00 43 1015.8
20260508100008 54 250 0.0 1.0 0.00 0.00 0.00 44 1015.8
20260508095508 54 243 0.0 3.0 0.00 0.00 0.00 44 1015.8
20260508095009 54 240 1.0 3.0 0.00 0.00 0.00 44 1015.7
20260508094508 54 266 0.0 2.0 0.00 0.00 0.00 45 1015.7
20260508094009 53 249 1.0 3.0 0.00 0.00 0.00 46 1015.7
20260508093508 53 244 1.0 3.0 0.00 0.00 0.00 46 1015.6
20260508093008 53 245 1.0 2.0 0.00 0.00 0.00 47 1015.7
20260508092508 53 253 1.0 2.0 0.00 0.00 0.00 48 1015.6
20260508092007 54 243 1.0 2.0 0.00 0.00 0.00 48 1015.6
20260508091509 54 261 1.0 2.0 0.00 0.00 0.00 48 1015.7
20260508091005 54 234 1.0 2.0 0.00 0.00 0.00 47 1015.6
20260508090505 54 283 0.0 1.0 0.00 0.00 0.00 47 1015.6
20260508090004 55 283 0.0 2.0 0.00 0.00 0.00 46 1015.6
20260508085503 55 283 0.0 2.0 0.00 0.00 0.00 46 1015.6
20260508085006 55 283 0.0 0.0 0.00 0.00 0.00 46 1015.7
20260508084503 55 281 0.0 2.0 0.00 0.00 0.00 45 1015.7
20260508084003 55 264 0.0 2.0 0.00 0.00 0.00 45 1015.8
20260508083502 55 249 1.0 3.0 0.00 0.00 0.00 44 1015.7
20260508083002 56 245 1.0 3.0 0.00 0.00 0.00 43 1015.7
20260508082502 57 288 0.0 2.0 0.00 0.00 0.00 41 1015.8
20260508082001 57 288 0.0 4.0 0.00 0.00 0.00 40 1015.7
20260508081504 57 266 2.0 4.0 0.00 0.00 0.00 41 1015.8
20260508081005 56 245 2.0 4.0 0.00 0.00 0.00 44 1015.8
20260508080503 55 242 1.0 4.0 0.00 0.00 0.00 45 1015.8
20260508080001 55 243 1.0 3.0 0.00 0.00 0.00 46 1015.7
20260508075501 55 241 1.0 3.0 0.00 0.00 0.00 46 1015.7
20260508075100 55 258 1.0 2.0 0.00 0.00 0.00 46 1015.8
20260508074600 55 246 1.0 3.0 0.00 0.00 0.00 46 1015.8
20260508074100 56 250 2.0 3.0 0.00 0.00 0.00 45 1015.8
20260508073559 56 254 2.0 4.0 0.00 0.00 0.00 44 1015.8
20260508073058 56 250 3.0 4.0 0.00 0.00 0.00 44 1015.8
20260508072557 56 245 2.0 3.0 0.00 0.00 0.00 44 1015.8
20260508072059 56 234 1.0 2.0 0.00 0.00 0.00 45 1015.8
20260508071559 56 229 1.0 2.0 0.00 0.00 0.00 44 1015.7
20260508071056 56 140 0.0 3.0 0.00 0.00 0.00 42 1015.7
20260508070559 56 133 0.0 1.0 0.00 0.00 0.00 43 1015.7
20260508070056 57 129 0.0 1.0 0.00 0.00 0.00 43 1015.7
20260508065554 57 134 0.0 0.0 0.00 0.00 0.00 43 1015.7
20260508065052 58 231 0.0 0.0 0.00 0.00 0.00 42 1015.8
20260508064554 58 231 0.0 0.0 0.00 0.00 0.00 40 1015.7
20260508064054 58 231 0.0 0.0 0.00 0.00 0.00 41 1015.6
20260508063552 58 263 0.0 2.0 0.00 0.00 0.00 41 1015.6
20260508063102 58 265 0.0 3.0 0.00 0.00 0.00 41 1015.7
20260508062551 58 278 2.0 3.0 0.00 0.00 0.00 41 1015.7
20260508062051 58 248 1.0 4.0 0.00 0.00 0.00 41 1015.6
20260508061555 58 274 2.0 3.0 0.00 0.00 0.00 41 1015.7